Location: Bandys
(35.4750°N, 81.0830°W)
Time: 16:46:18
(UTC-04:00)

Daily predictions for brighter satellites

Satellite Brightness Start Highest point End
(mag) Time Altitude Azimuth Time Altitude Azimuth Time Altitude Azimuth
Cosmos 1782 3.3 20:52:12 10° N 20:56:03 42° E 20:59:53 10° SSE
SEDSat Delta rocket 3.9 20:52:28 10° SW 20:56:41 32° SSE 21:00:32 10° ESE
Envisat 4.4 20:55:53 10° ESE 20:59:35 21° ENE 21:03:19 10° NNE
Cosmos 1844 Rocket 3.0 20:54:23 10° SSW 21:00:02 75° WNW 21:05:41 10° NNE
Cosmos 1825 3.3 20:58:58 10° SE 21:02:05 24° E 21:05:13 10° NE
FENGYUN 3A 3.7 20:57:04 10° SSE 21:02:27 80° ENE 21:07:51 10° N
Meteor 2-6 Rocket 4.4 20:58:34 10° N 21:04:24 58° E 21:10:03 10° SSE
Cosmos 2278 Rocket 2.3 20:59:20 10° S 21:04:51 55° ESE 21:10:23 10° NNE
Atlas Centaur 2 2.4 21:03:17 10° WSW 21:06:35 27° SSW 21:09:39 10° SE
ERS-1 Rocket 3.7 21:03:55 10° SE 21:08:31 37° ENE 21:13:08 10° N
COSMOS 2406 3.7 21:03:45 10° NNW 21:09:26 64° WSW 21:15:02 10° S
Cosmos 1844 3.9 21:05:50 10° SSW 21:11:36 82° WNW 21:17:26 10° NNE
ISS -0.9 21:09:49 10° W 21:12:38 26° NW 21:15:27 10° NNE
H-2A R/B 3.5 21:09:40 10° ESE 21:12:51 22° ENE 21:16:04 10° NNE
APEX 4.0 21:12:42 10° S 21:16:06 35° ESE 21:20:25 10° NE
Cosmos 2154 Rocket 4.1 21:11:05 10° SSE 21:17:06 56° E 21:23:09 10° NNE
Cosmos 1939 Rocket 3.9 21:15:00 12° SE 21:18:00 28° ENE 21:21:24 10° NNE
Okean 3 4.5 21:15:35 10° NNE 21:19:17 28° ENE 21:22:11 14° SE
Cosmos 407 Rocket 3.5 21:14:09 10° NNW 21:19:28 87° ENE 21:24:48 10° SSE
Abrixas 2.6 21:18:22 10° SW 21:21:19 50° SE 21:24:17 10° ENE
YAOGAN 11 4.3 21:17:33 10° SSE 21:22:00 61° ENE 21:26:31 10° N
COSMOS 2487 3.2 21:20:13 10° N 21:23:35 36° ENE 21:25:58 17° SE
Cosmos 1238 Rocket 3.6 21:20:35 10° NNE 21:23:51 32° E 21:26:52 14° SE
SPOT 5 4.2 21:23:32 14° ESE 21:27:09 28° ENE 21:31:38 10° NNE
Cosmos 2082 Rocket 3.7 21:23:21 10° N 21:27:36 21° ENE 21:30:58 13° E
CENTAUR R/B 4.3 21:23:42 10° NW 21:31:02 40° WSW 21:38:34 10° S
Cosmos 1452 Rocket 3.9 21:26:59 10° SSW 21:32:13 68° WNW 21:37:29 10° NNE
Lacrosse 5 3.1 21:32:30 10° SSE 21:35:59 19° ESE 21:39:29 10° ENE
Cosmos 1184 Rocket 2.7 21:33:38 10° S 21:36:55 64° E 21:40:14 10° NNE
Intercosmos 25 4.0 21:38:00 22° SE 21:39:08 27° E 21:41:54 10° NNE
Cosmos 1674 Rocket 4.4 21:37:10 10° NNW 21:41:30 51° W 21:45:44 10° SSW
Cosmos 2297 3.7 21:37:57 10° S 21:43:32 59° ESE 21:49:09 10° NNE
CZ-3A R/B 4.1 21:30:56 10° W 21:48:04 32° SSW 21:51:21 17° SSE
H-2A R/B 4.0 21:43:58 10° WSW 21:48:16 50° S 22:13:28 10° ESE
Meteor 2-13 Rocket 4.5 21:44:16 10° S 21:50:19 61° E 21:56:23 10° NNE
Okean 2 Rocket 3.0 21:47:08 10° S 21:51:30 68° E 21:55:53 10° NNE
Cosmos 1606 3.4 21:51:59 10° NNW 21:55:49 53° W 21:59:21 12° S
Cosmos 1782 Rocket 3.6 21:51:53 10° S 21:56:20 84° W 22:00:50 10° N
CZ-4 DEB 4.5 21:55:40 10° SSW 21:58:29 30° W 22:01:21 10° NW
EO 1 Delta rocket 4.0 21:54:25 10° N 22:00:04 87° W 22:04:48 10° SSW
NOSS 8 (E) 4.4 21:57:20 10° SSW 22:00:48 61° ESE 22:04:17 10° NE
USA 229 DEB 4.4 21:56:27 10° NNW 22:03:10 42° NE 22:07:00 24° ESE
USA 229 4.4 21:56:34 10° NNW 22:03:16 42° NE 22:07:06 24° ESE
Cosmos 1242 Rocket 2.6 22:00:03 10° N 22:03:44 64° E 22:04:46 42° SE
Cosmos 1850 Rocket 4.1 22:01:42 10° N 22:07:00 65° ENE 22:09:25 32° SE
COS B Rocket 3.7 22:04:51 10° N 22:08:33 53° W 22:10:45 19° SSW
Elektron 3 4.5 22:07:09 10° NNW 22:10:09 56° NE 22:11:15 40° ESE
ARGOS 3.9 22:09:05 29° ESE 22:10:43 35° ENE 22:15:32 10° N
YAOGAN 6 2.9 22:10:46 42° E 22:10:54 43° ENE 22:14:15 10° N
Nadezhda 3 Rocket 4.5 22:05:57 10° NNW 22:12:13 62° W 22:18:27 10° S
Lacrosse 5 rocket 1.2 22:08:29 10° SSW 22:12:24 53° SE 22:16:08 10° NE
Cosmos 2218 Rocket 4.1 22:08:10 21° SSE 22:12:31 60° E 22:18:47 10° NNE
GPS 2-05 Rocket1 2.8 22:09:27 10° W 22:13:11 86° S 22:13:49 59° ESE
OAO 3 Rocket 3.1 22:08:14 10° WSW 22:13:12 78° S 22:15:30 32° E
Cosmos 1408 4.4 22:10:35 10° SW 22:13:52 31° W 22:17:09 10° NNW
Cosmos 1975 Rocket 3.1 22:09:38 10° N 22:13:58 75° W 22:16:09 29° S
DNEPR-1 R/B 3.6 22:09:38 10° NNW 22:14:46 90° E 22:16:17 42° SSE
PSLV R/B 3.5 22:16:18 50° NE 22:16:18 50° NE 22:18:46 10° N
CZ-4 R/B 4.4 22:16:05 10° NNE 22:20:06 36° E 22:20:06 36° E
Cosmos 1959 Rocket 4.4 22:16:51 23° S 22:20:46 71° E 22:26:50 10° N
CZ-4 SHROUD 3.5 22:23:32 58° NNE 22:23:32 58° NNE 22:26:09 10° N
SL-08 R/B 4.5 22:21:28 23° S 22:25:39 75° E 22:32:07 10° N
Cosmos 1536 Rocket 4.0 22:22:40 10° N 22:26:57 43° E 22:27:02 43° E
Cosmos 1331 Rocket 4.1 22:27:09 46° SE 22:27:44 49° ESE 22:32:41 10° NNE
Cosmos 1727 Rocket 4.2 22:22:50 10° N 22:28:49 49° E 22:30:27 40° ESE
Cosmos 1741 Rocket 4.0 22:23:58 10° NNW 22:29:12 81° WSW 22:31:03 41° S
NOSS 8 (H) 4.4 22:30:35 83° NNW 22:30:35 83° NNW 22:34:09 10° NNE
MetOp-A 4.1 22:31:17 37° S 22:33:28 81° WSW 22:38:50 10° NNW
OAO 1 Rocket 4.3 22:31:46 10° W 22:37:05 87° S 22:38:33 49° E
Cosmos 1110 Rocket 3.8 22:35:43 45° S 22:37:17 72° ESE 22:42:30 10° NNE
Envisat 4.1 22:35:07 19° SSW 22:38:17 40° W 22:43:03 10° NNW
Meteor 1-20 Rocket 4.2 22:39:25 52° SE 22:40:23 60° E 22:45:49 10° NNE
Cosmos 614 Rocket 4.1 22:36:44 10° NNW 22:41:46 66° WSW 22:43:08 46° SSW
SEDSat Delta rocket 3.7 22:38:17 10° WSW 22:41:22 38° SW 22:41:22 38° SW
SL-8 Rocket 4.4 22:38:03 13° SSW 22:43:41 62° W 22:49:52 10° N
Cosmos 1833 Rocket 2.6 22:38:25 10° NNW 22:44:02 72° ENE 22:45:06 57° SE
Terra 3.0 22:44:32 28° ENE 22:44:32 28° ENE 22:48:12 10° NNE
USA 245 3.4 22:46:36 67° NNW 22:46:36 67° NNW 22:50:19 10° NNW
H-2A R/B 3.8 22:46:49 19° SW 22:48:42 27° W 22:52:17 10° NW
Cosmos 2151 Rocket 4.5 22:56:55 35° SW 22:58:17 47° W 23:02:40 10° N
USA 234 4.1 22:54:18 10° ENE 22:58:06 32° E 22:58:06 32° E
Meteor 1-25 Rocket 4.4 22:58:34 41° SSW 23:00:41 75° W 23:06:32 10° N
Cosmos 1300 Rocket 4.1 23:04:46 51° NNE 23:04:46 51° NNE 23:08:10 10° N
SPOT 5 4.5 23:02:46 24° SW 23:05:01 33° W 23:09:48 10° NNW
CZ-4B R/B 4.1 23:02:01 10° N 23:06:44 50° WNW 23:08:19 35° WSW
Cosmos 1486 Rocket 4.5 23:04:32 10° N 23:09:19 49° NE 23:09:19 49° NE
Cosmos 2082 Rocket 2.7 23:06:29 10° NNW 23:11:57 50° WSW 23:12:49 46° SW
Okean 1 4.4 23:07:55 10° N 23:10:39 41° N 23:10:39 41° N
Okean 1 Rocket 3.9 23:13:53 47° NNE 23:13:53 47° NNE 23:17:05 10° N
Cosmos 1812 4.1 23:12:42 10° NNW 23:15:11 37° NNW 23:15:11 37° NNW
Lacrosse 5 2.4 23:13:31 10° SW 23:18:32 58° NW 23:23:33 10° NNE
H-2A R/B 2.1 23:20:50 78° NNE 23:20:50 78° NNE 23:25:51 10° N
BREEZE-M DEB (TANK) 4.5 23:23:31 61° SE 23:23:43 61° SE 23:41:38 10° NE
Cosmos 1302 Rocket 4.3 23:32:20 66° NW 23:32:20 66° NW 23:37:12 10° NNE
Cosmos 1535 Rocket 4.4 23:37:20 78° ENE 23:37:20 78° ENE 23:43:28 10° N
Meteor 1-13 Rocket 4.4 23:38:21 10° N 23:43:51 75° NW 23:43:51 75° NW
ASTEX 1 4.1 23:40:40 10° N 23:44:25 51° NNW 23:44:25 51° NNW
Iridium 4 Rocket 4.2 23:44:37 10° N 23:49:23 56° NNE 23:49:23 56° NNE
Lacrosse 5 rocket 4.0 23:49:20 10° WNW 23:51:49 16° NW 23:54:16 10° N
